GW0254 Weather Reports


Display with metric or nautical units.
time (UTC)temp
F
wind
direction
speed
MPH
gust
MPH
rain 1hr
in
rain 24hr
in
rain mn
in
humidity
%
barometer
mb
20260831063104 58 176 2.0 3.0 0.00 0.00 0.00 48 1021.6
20260831061546 58 176 1.0 3.0 0.00 0.00 0.00 49 1021.8
20260831060051 58 176 1.0 3.0 0.00 0.00 0.00 48 1021.8
20260831054550 59 176 1.0 3.0 0.00 0.00 0.00 47 1021.8
20260831053123 59 175 2.0 3.0 0.00 0.00 0.00 47 1021.9
20260831051556 59 176 2.0 3.0 0.00 0.00 0.00 46 1022.0
20260831050054 59 176 1.0 3.0 0.00 0.00 0.00 45 1022.0
20260831044637 59 175 1.0 3.0 0.00 0.00 0.00 45 1022.0
20260831043047 59 175 1.0 3.0 0.00 0.00 0.00 44 1022.0
20260831041550 60 176 1.0 3.0 0.00 0.00 0.00 44 1022.0
20260831040050 60 175 1.0 3.0 0.00 0.00 0.00 44 1021.8
20260831034547 61 175 1.0 3.0 0.00 0.00 0.00 43 1021.5
20260831033102 61 175 1.0 3.0 0.00 0.00 0.00 44 1021.5
20260831031543 61 175 1.0 3.0 0.00 0.00 0.00 43 1021.5
20260831030052 62 175 1.0 3.0 0.00 0.00 0.00 42 1021.3
20260831024546 63 175 1.0 3.0 0.00 0.00 0.00 40 1021.1
20260831023046 64 175 1.0 2.0 0.00 0.00 0.00 39 1021.1
20260831021542 65 175 0.0 2.0 0.00 0.00 0.00 38 1021.0
20260831020053 66 0 0.0 3.0 0.00 0.00 0.00 39 1021.1
20260831014547 67 0 0.0 4.0 0.00 0.00 0.00 38 1021.1
20260831013047 67 176 1.0 6.0 0.00 0.00 0.00 38 1020.9
20260831011557 68 0 1.0 5.0 0.00 0.00 0.00 36 1020.9
20260831004546 69 193 2.0 7.0 0.00 0.00 0.00 35 1020.9
20260831003047 70 171 3.0 10.0 0.00 0.00 0.00 35 1021.0
20260831001544 70 190 3.0 8.0 0.00 0.00 0.00 32 1021.0
20260831000058 71 185 2.0 7.0 0.00 0.00 0.00 33 1021.1
20260830234549 71 180 4.0 10.0 0.00 0.00 0.00 32 1021.1
20260830233046 70 168 3.0 9.0 0.00 0.00 0.00 34 1021.1
20260830231554 70 188 2.0 9.0 0.00 0.00 0.00 32 1021.3
20260830230046 70 188 2.0 10.0 0.00 0.00 0.00 32 1021.4
20260830224552 71 190 3.0 8.0 0.00 0.00 0.00 30 1021.5
20260830223051 72 145 4.0 10.0 0.00 0.00 0.00 29 1021.6
20260830221549 72 188 1.0 10.0 0.00 0.00 0.00 30 1021.8
20260830220047 71 195 3.0 10.0 0.00 0.00 0.00 29 1022.0
20260830214554 71 158 3.0 10.0 0.00 0.00 0.00 28 1022.1
20260830213102 71 188 2.0 7.0 0.00 0.00 0.00 28 1022.3
20260830211545 70 196 4.0 9.0 0.00 0.00 0.00 27 1022.4
20260830210045 70 194 2.0 8.0 0.00 0.00 0.00 28 1022.4
20260830204551 69 186 3.0 9.0 0.00 0.00 0.00 26 1022.6
20260830203051 69 208 4.0 9.0 0.00 0.00 0.00 26 1022.6
20260830201546 69 148 3.0 8.0 0.00 0.00 0.00 25 1022.5
20260830200057 70 184 2.0 9.0 0.00 0.00 0.00 24 1022.6
20260830194558 70 188 1.0 7.0 0.00 0.00 0.00 24 1022.6
20260830193052 69 190 2.0 10.0 0.00 0.00 0.00 24 1022.8
20260830191550 67 159 3.0 7.0 0.00 0.00 0.00 24 1022.9
20260830190045 67 180 3.0 9.0 0.00 0.00 0.00 24 1023.0
20260830184558 67 149 3.0 9.0 0.00 0.00 0.00 23 1023.0
20260830183047 67 192 3.0 7.0 0.00 0.00 0.00 24 1023.1
20260830181548 67 188 2.0 8.0 0.00 0.00 0.00 23 1023.1
20260830180047 65 168 3.0 10.0 0.00 0.00 0.00 22 1023.1
20260830174557 66 195 4.0 8.0 0.00 0.00 0.00 20 1023.1
20260830173048 66 170 2.0 6.0 0.00 0.00 0.00 22 1023.0
20260830171548 65 131 2.0 8.0 0.00 0.00 0.00 22 1022.9
20260830170047 65 184 2.0 5.0 0.00 0.00 0.00 24 1022.8
20260830164550 64 94 2.0 6.0 0.00 0.00 0.00 22 1022.7
20260830163048 64 207 2.0 5.0 0.00 0.00 0.00 31 1022.7
20260830161601 64 214 2.0 5.0 0.00 0.00 0.00 27 1022.7
20260830160046 63 215 1.0 4.0 0.00 0.00 0.00 25 1022.6
20260830154555 64 0 0.0 0.0 0.00 0.00 0.00 26 1022.6
20260830153051 64 0 0.0 0.0 0.00 0.00 0.00 26 1022.6
20260830151543 64 0 0.0 2.0 0.00 0.00 0.00 28 1022.5
20260830150112 61 0 0.0 2.0 0.00 0.00 0.00 30 1022.4
20260830144547 57 285 0.0 2.0 0.00 0.00 0.00 33 1022.4
20260830143048 55 285 0.0 2.0 0.00 0.00 0.00 33 1022.4
20260830141555 52 285 1.0 2.0 0.00 0.00 0.00 34 1022.2
20260830140053 50 263 2.0 3.0 0.00 0.00 0.00 35 1022.2
20260830134546 50 263 1.0 3.0 0.00 0.00 0.00 34 1022.0
20260830133048 51 263 2.0 3.0 0.00 0.00 0.00 33 1022.0
20260830131555 51 263 1.0 3.0 0.00 0.00 0.00 32 1021.9
20260830130055 51 263 2.0 3.0 0.00 0.00 0.00 32 1021.8
20260830124549 52 263 2.0 3.0 0.00 0.00 0.00 33 1021.8
20260830123045 51 263 2.0 4.0 0.00 0.00 0.00 34 1021.8
20260830121554 51 263 2.0 4.0 0.00 0.00 0.00 36 1021.8
20260830120048 51 263 2.0 4.0 0.00 0.00 0.00 37 1021.7
20260830114603 51 263 2.0 4.0 0.00 0.00 0.00 38 1021.6
20260830113055 51 263 2.0 4.0 0.00 0.00 0.00 38 1021.7
20260830111552 51 263 2.0 4.0 0.00 0.00 0.00 38 1021.8
20260830110045 51 263 2.0 4.0 0.00 0.00 0.00 37 1021.8
20260830104555 51 263 2.0 4.0 0.00 0.00 0.00 37 1021.9
20260830103052 51 263 2.0 4.0 0.00 0.00 0.00 37 1021.8
20260830101552 52 263 2.0 4.0 0.00 0.00 0.00 34 1021.8
20260830100046 52 263 2.0 3.0 0.00 0.00 0.00 34 1021.7
20260830094553 51 263 2.0 3.0 0.00 0.00 0.00 36 1021.7
20260830093054 51 263 1.0 3.0 0.00 0.00 0.00 37 1021.7
20260830091547 51 263 2.0 4.0 0.00 0.00 0.00 38 1021.7
20260830090058 51 263 1.0 4.0 0.00 0.00 0.00 39 1021.6
20260830084555 51 263 2.0 4.0 0.00 0.00 0.00 39 1021.7
20260830083054 51 263 2.0 4.0 0.00 0.00 0.00 39 1021.7
20260830081551 51 263 2.0 4.0 0.00 0.00 0.00 39 1021.8
20260830080051 51 263 2.0 4.0 0.00 0.00 0.00 40 1022.0
20260830074611 52 263 2.0 4.0 0.00 0.00 0.00 43 1022.0
20260830073045 53 263 2.0 4.0 0.00 0.00 0.00 49 1022.0
20260830071600 54 263 1.0 4.0 0.00 0.00 0.00 51 1022.0
20260830070052 54 263 1.0 3.0 0.00 0.00 0.00 55 1022.0
20260830064549 54 263 2.0 4.0 0.00 0.00 0.00 54 1022.2